Home > Time Zones > World Clock > Weather > Peru > Lima > Past weeks

Flag Weather past 2 weeks in Lima, Lima, Peru

Now
64 °F

Overcast.


Feels Like: 64 °F
Forecast: 64 / 74 °F
Wind: 6 mph from Southwest

Location: Lima-Callao / Aerop. Internacional Jorgechavez

Current Time: Nov 28, 2014 at 7:43:32 AM

Latest Report: Nov 28, 2014 at 7:00 AM


Visibility: 5 mi

Pressure: 29.86 "Hg

Humidity: 88%

Dew point: 61 °F

Location of LimaLocation

Historic Weather in Lima — Graph

°F

Lima temperature yesterday

Maximum temperature yesterday: 75 °F (at 1:00 PM)
Minimum temperature yesterday: 64 °F (at 12:00 AM)
Average temperature yesterday: 69 °F

Past Weeks' High & Low Weather Summary

 TemperatureHumidityPressure
High75 °F (Nov 22, 12:00 PM)94% (Nov 16, 5:00 AM)30.07 "Hg (Nov 16, 5:00 AM)
Low63 °F (Nov 16, 5:00 AM)57% (Nov 26, 3:00 PM)29.80 "Hg (Nov 28, 3:00 AM)
Average68 °F81%29.96 "Hg
* Reported Nov 13 6:00 AM — Nov 28 6:00 AM, Lima, Weather by CustomWeather, © 2014

Note: Actual official high and low records may vary slightly from our data, if they occured in-between our weather recording intervals... More about our weather records

Advertising

Lima weather history for previous 24 hours

 ConditionsComfort  
Time TempWeatherWind HumidityBarometerVisibility
6:00 AM
Nov 28
64 °FOvercast.5 mph88%29.86 "Hg5 mi
5:00 AM64 °FOvercast.6 mph88%29.83 "HgN/A
4:00 AM64 °FLow clouds.7 mph88%29.80 "HgN/A
3:00 AM64 °FLow clouds.9 mph88%29.80 "HgN/A
2:00 AM64 °FPassing clouds.9 mph88%29.83 "Hg5 mi
1:00 AM64 °FPassing clouds.12 mph88%29.86 "HgN/A
12:00 AM66 °FClear.13 mph83%29.89 "Hg10 mi
11:00 PM
Nov 27
66 °FPassing clouds.12 mph88%29.92 "HgN/A
10:00 PM66 °FPassing clouds.15 mph88%29.92 "HgN/A
9:00 PM66 °FPassing clouds.15 mph83%29.92 "HgN/A
8:00 PM66 °FPassing clouds.10 mph83%29.89 "HgN/A
7:00 PM66 °FClear.12 mph83%29.89 "Hg10 mi
6:00 PM68 °FSunny.12 mph83%29.89 "Hg10 mi
5:00 PM70 °FSunny.12 mph78%29.89 "Hg10 mi
4:00 PM73 °FSunny.12 mph69%29.89 "Hg10 mi
3:00 PM75 °FPassing clouds.13 mph61%29.89 "HgN/A
2:00 PM75 °FPassing clouds.13 mph61%29.92 "HgN/A
1:00 PM75 °FPartly sunny.10 mph61%29.95 "HgN/A
12:00 PM73 °FOvercast.8 mph65%29.95 "HgN/A
11:00 AM73 °FOvercast.7 mph65%29.98 "HgN/A
10:00 AM72 °FOvercast.7 mph69%29.98 "HgN/A
9:00 AM70 °FOvercast.7 mph73%29.98 "HgN/A
8:00 AM68 °FOvercast.6 mph78%29.98 "HgN/A
7:00 AM66 °FOvercast.7 mph83%29.98 "HgN/A
Weather by CustomWeather, © 2014

See weather overviewHow to use our weather pages